Wind_Speed
2 3 5 6 4 3 4 3 3 1 1 1 3 7 13 10 15 17 22 26 28 29 24 23 22 19 17 16 14 11 10 7 5 3 1 3 5 8 9 11 14 17 20 22
3 4 3 5 4 3 3 3 3 1 2 2 3 12 10 2 7 16 23 25 30 28 26 27 25 22 19 15 14 13 12 9 7 5 4 6 7 9 10 12 15 18 20 23
4 2 6 4 4 5 2 3 3 3 1 2 5 6 3 2 3 5 9 17 25 31 30 28 27 24 20 18 15 12 12 11 9 8 8 10 11 12 13 14 17 19 21 24
3 2 4 4 3 4 3 1 3 3 2 2 3 4 3 4 4 7 11 6 13 26 30 27 26 24 20 17 15 14 13 13 12 12 12 14 15 16 16 18 20 21 24 26
2 2 3 3 2 1 3 3 3 2 3 1 2 1 4 4 5 9 11 11 4 14 26 28 25 21 19 17 15 14 15 16 15 16 17 18 19 19 19 20 21 23 26 30
2 2 3 2 3 3 7 4 5 3 2 0 1 2 2 3 5 9 13 12 3 7 16 22 22 21 20 18 18 18 18 18 18 19 20 20 22 22 21 21 23 27 31 34
4 3 3 3 4 3 3 4 2 2 1 3 1 1 3 5 5 6 12 10 8 6 5 11 18 20 21 20 20 20 20 20 21 21 22 22 22 20 20 23 28 32 35 37
5 2 2 4 2 4 2 4 4 3 2 2 1 4 1 3 7 11 12 13 11 9 6 2 5 12 17 19 20 20 20 20 20 21 22 21 18 19 22 27 31 34 36 38
4 1 1 4 1 1 3 2 2 5 2 1 2 3 2 3 7 13 16 18 15 12 9 7 4 2 1 4 8 11 13 15 18 19 18 17 18 22 27 30 33 35 36 37
4 3 1 1 2 6 1 5 2 2 2 3 2 3 3 1 5 7 13 17 16 14 13 11 10 8 6 4 5 8 12 15 16 15 15 18 22 26 30 32 34 35 37 38
3 2 1 1 1 5 2 1 5 3 1 2 2 3 3 2 1 3 6 11 16 16 15 13 11 9 8 8 9 10 13 13 13 15 18 22 25 29 32 34 35 36 39 39
0 3 2 1 1 1 2 3 3 3 3 1 0 4 1 3 2 5 8 10 11 12 12 11 11 12 12 12 12 12 12 14 15 18 21 25 30 33 34 35 36 37 38 39
3 2 2 2 2 2 1 2 3 4 2 5 3 2 4 3 5 6 8 7 8 8 9 11 12 14 16 16 16 15 16 16 18 21 24 29 32 32 33 35 36 36 38 39
3 3 3 3 2 2 2 3 3 3 2 4 5 2 4 1 4 4 4 4 4 7 10 13 16 18 18 18 18 19 19 19 20 23 28 30 31 32 34 35 36 36 37 39
3 2 2 2 2 2 3 4 6 7 4 6 2 6 3 4 6 3 1 1 4 9 13 17 22 23 21 20 20 20 19 19 22 26 29 30 31 33 34 35 36 37 38 36
1 3 3 2 0 0 4 6 5 5 4 7 3 7 4 7 7 3 1 5 8 11 14 19 24 24 22 24 21 18 17 20 25 28 29 30 32 33 35 36 37 38 36 33
2 4 2 2 3 4 6 4 5 3 2 4 4 4 6 4 5 3 6 6 8 14 19 22 24 24 24 23 17 15 18 23 26 28 30 30 31 34 35 37 39 36 32 32
4 3 2 1 2 0 3 2 1 4 4 5 2 4 8 4 2 7 5 4 14 20 22 24 25 25 21 16 14 17 22 25 27 29 30 29 32 35 37 38 36 32 31 31
4 4 2 2 2 5 2 3 4 5 5 7 6 6 5 2 4 3 4 11 19 21 23 23 25 20 15 13 16 21 24 25 27 28 28 30 33 36 37 37 33 30 33 33
4 5 3 2 3 5 2 3 4 3 4 9 10 8 5 1 2 3 9 17 19 21 21 23 20 14 13 15 20 24 24 26 28 28 29 32 34 35 36 33 30 32 32 31
2 3 3 2 3 7 5 5 5 3 4 10 10 8 6 3 5 10 14 16 18 20 21 19 14 13 15 19 23 24 26 27 28 27 30 33 34 36 32 28 30 30 31 29
6 6 3 2 1 6 9 5 6 2 9 11 9 6 4 5 8 11 14 17 19 20 18 16 14 14 18 21 23 25 27 27 27 28 32 34 35 33 28 30 30 29 30 29
2 5 4 8 5 3 16 3 5 10 12 10 7 5 3 4 7 11 16 18 20 19 17 16 17 18 19 21 23 26 27 27 27 30 33 34 34 27 28 30 30 30 29 28
3 6 2 1 3 10 11 11 9 9 8 7 5 3 1 5 8 12 16 19 21 20 18 17 19 19 20 21 23 25 26 26 27 31 33 35 26 27 31 28 29 29 27 26
3 8 5 5 6 3 8 14 12 11 8 7 4 1 3 7 10 14 17 19 21 22 20 18 20 20 22 22 24 24 24 24 27 30 31 30 26 31 29 28 28 25 22 22
10 6 5 5 7 4 3 15 16 13 10 6 3 1 4 7 10 13 17 20 23 24 22 21 21 22 21 21 23 23 22 23 27 30 30 29 29 27 27 29 29 22 20 20
Wind_Direction
73 122 191 198 154 160 120 130 234 222 74 234 241 271 276 246 229 228 223 217 212 212 204 201 198 196 192 192 194 197 197 197 201 209 287 332 335 340 343 347 349 350 350 349
57 227 195 164 165 138 142 165 247 331 69 200 350 288 288 249 250 240 235 226 219 213 202 203 201 202 204 205 207 210 211 218 227 241 283 311 314 327 328 329 334 338 339 339
152 213 149 123 122 135 136 177 185 215 347 78 324 289 348 9 315 305 270 252 234 216 205 203 204 208 208 212 216 221 227 233 243 258 278 299 303 312 316 317 321 324 327 329
99 347 108 103 124 127 177 253 127 104 62 270 358 285 306 342 322 19 9 272 236 220 211 208 209 213 217 217 220 226 234 243 251 265 277 289 294 301 307 308 312 316 319 322
180 91 106 97 110 126 144 66 74 80 101 9 26 185 277 351 336 345 354 2 243 214 212 211 215 221 224 222 228 237 242 248 256 267 271 279 287 294 299 300 302 307 312 316
87 51 53 119 59 59 143 82 52 59 90 224 292 187 302 357 309 311 333 3 42 182 201 214 222 229 233 234 237 243 251 256 258 265 269 277 284 288 289 293 301 306 310 313
32 5 353 77 86 37 78 68 321 335 14 226 11 176 281 305 328 307 321 8 67 93 174 214 225 234 239 242 244 250 255 259 260 260 265 273 279 282 290 299 305 310 311 313
155 281 15 356 78 166 113 155 167 242 221 287 69 237 141 304 3 40 57 70 77 72 77 101 226 244 251 249 251 252 257 259 258 260 267 274 281 289 298 304 308 310 311 313
132 210 345 48 62 44 164 162 139 106 53 263 269 276 315 18 44 35 47 62 64 67 68 65 55 34 313 272 261 260 259 260 261 266 274 281 290 299 305 309 310 311 313 315
176 117 348 95 98 46 148 135 109 37 204 252 271 271 185 122 27 26 45 53 66 68 67 64 59 51 36 4 320 290 276 270 269 273 282 292 301 308 310 311 313 316 315 314
124 94 241 101 193 181 103 107 57 110 127 207 283 259 211 182 67 68 60 75 76 71 67 61 52 40 19 351 324 296 282 278 280 285 294 303 311 313 314 315 315 315 314 314
26 125 161 133 66 90 127 155 145 141 195 78 133 269 92 88 82 130 104 93 77 66 57 42 28 14 358 338 319 302 291 287 291 299 306 314 317 316 314 313 314 314 313 313
178 41 77 16 17 14 198 156 105 98 98 191 166 254 157 61 92 108 109 91 83 59 35 18 2 350 339 327 314 303 296 294 299 307 313 316 314 312 312 313 315 315 314 314
93 98 151 186 147 132 189 181 161 133 154 168 229 238 194 221 152 137 112 103 59 13 357 348 342 338 328 319 310 301 295 296 302 310 314 314 314 314 315 316 316 315 315 315
92 128 175 226 223 216 235 204 180 198 186 204 237 210 193 177 171 166 168 315 330 334 332 330 332 330 323 315 308 299 292 296 307 314 314 315 316 316 316 318 318 317 317 318
12 165 175 177 116 300 260 232 219 222 215 254 261 280 213 166 176 206 287 314 329 320 311 312 319 323 320 317 308 298 298 307 312 313 315 317 318 319 320 320 321 321 320 320
107 133 102 262 342 318 287 234 192 189 175 162 199 224 174 184 207 251 320 314 314 321 320 321 322 320 317 316 306 303 307 312 314 316 319 321 321 320 322 324 325 323 322 323
124 96 59 238 357 222 243 167 163 210 224 189 172 185 183 180 248 310 297 284 318 324 324 323 321 319 317 313 308 311 315 317 318 320 320 322 323 324 326 327 326 326 329 327
50 123 101 148 200 294 236 199 178 176 272 191 183 168 158 143 311 286 212 318 325 327 324 320 320 319 313 309 313 317 317 317 319 321 323 325 326 325 326 327 328 331 332 329
53 59 107 132 143 219 260 209 173 114 279 181 167 160 154 90 336 257 305 316 322 324 323 322 321 317 316 317 320 319 320 323 324 326 326 326 327 326 325 325 329 334 328 322
71 36 144 145 222 282 223 171 150 106 256 154 157 152 162 201 232 295 310 318 325 330 333 331 324 318 317 319 320 322 323 324 325 325 324 326 328 326 326 330 335 327 323 323
172 150 183 104 148 278 162 125 179 166 135 154 156 172 222 277 304 318 324 328 333 333 334 333 326 319 319 321 321 323 324 324 325 324 327 328 328 326 334 338 332 331 333 329
246 192 180 187 214 256 193 179 207 168 172 173 181 204 256 311 327 330 331 337 337 334 330 327 323 319 319 318 321 323 326 325 323 326 329 329 328 333 332 333 335 334 334 330
232 183 206 87 218 232 227 230 206 186 180 171 189 197 297 322 328 330 337 340 337 334 327 320 320 317 317 318 323 324 324 321 323 327 330 331 332 332 335 338 339 337 334 334
195 151 178 262 268 262 233 214 195 180 178 181 179 201 310 331 339 339 339 339 338 334 326 318 319 315 316 318 324 326 322 319 325 329 332 335 333 330 338 342 338 337 338 336
192 184 175 225 205 179 203 201 192 190 187 178 168 320 333 335 338 338 339 338 339 337 330 319 313 310 314 319 326 327 321 322 328 331 334 338 332 339 344 338 339 350 346 342
Height
1516 1520 1525 1523 1525 1526 1529 1533 1538 1535 1534 1536 1536 1535 1527 1529 1529 1530 1531 1532 1535 1537 1543 1546 1549 1552 1555 1557 1559 1560 1562 1563 1564 1564 1565 1564 1564 1563 1562 1560 1559 1557 1556 1554
1521 1522 1520 1521 1525 1528 1531 1535 1537 1535 1536 1537 1537 1531 1524 1525 1525 1525 1526 1527 1530 1535 1539 1542 1546 1549 1552 1554 1557 1559 1560 1561 1562 1562 1562 1562 1561 1561 1559 1557 1556 1554 1551 1549
1520 1520 1518 1520 1525 1529 1533 1536 1538 1537 1538 1538 1539 1532 1526 1525 1525 1523 1522 1523 1526 1530 1534 1538 1542 1546 1549 1552 1554 1557 1558 1559 1559 1559 1559 1559 1558 1557 1555 1554 1552 1550 1547 1545
1518 1517 1518 1522 1526 1527 1535 1533 1533 1536 1540 1544 1541 1544 1531 1528 1524 1523 1521 1520 1521 1524 1531 1536 1540 1543 1546 1549 1553 1554 1555 1556 1556 1556 1555 1555 1554 1553 1551 1550 1548 1545 1542 1540
1522 1521 1522 1525 1527 1526 1533 1534 1537 1541 1545 1545 1547 1547 1528 1530 1526 1522 1522 1520 1520 1522 1527 1532 1537 1541 1544 1548 1550 1551 1552 1552 1553 1552 1552 1551 1549 1548 1546 1544 1543 1541 1538 1535
1521 1521 1523 1526 1529 1528 1533 1537 1544 1549 1550 1552 1549 1548 1533 1534 1533 1526 1522 1521 1520 1522 1526 1532 1536 1540 1542 1545 1547 1548 1548 1549 1549 1549 1548 1547 1545 1543 1542 1540 1538 1535 1532 1529
1524 1527 1525 1525 1530 1532 1534 1540 1549 1548 1550 1547 1550 1551 1534 1534 1532 1531 1526 1523 1522 1524 1527 1531 1534 1537 1539 1541 1543 1544 1544 1545 1545 1544 1543 1542 1540 1538 1537 1535 1532 1528 1524 1520
1532 1535 1529 1529 1530 1532 1537 1538 1545 1547 1549 1549 1552 1545 1535 1534 1533 1530 1527 1525 1526 1527 1529 1530 1533 1535 1536 1537 1539 1539 1540 1540 1540 1540 1539 1537 1536 1534 1532 1529 1525 1521 1516 1512
1531 1533 1530 1530 1530 1532 1539 1541 1544 1554 1565 1556 1547 1540 1533 1534 1533 1531 1529 1528 1529 1529 1530 1531 1532 1532 1533 1534 1535 1536 1536 1536 1536 1535 1534 1533 1531 1529 1526 1522 1518 1513 1509 1503
1527 1535 1533 1532 1531 1534 1533 1539 1544 1550 1548 1549 1545 1545 1531 1534 1534 1535 1533 1532 1531 1531 1531 1532 1532 1532 1533 1534 1534 1534 1534 1533 1532 1531 1530 1528 1526 1523 1519 1514 1510 1505 1500 1495
1526 1529 1537 1533 1535 1536 1540 1541 1549 1549 1554 1543 1545 1534 1535 1535 1537 1537 1537 1535 1535 1534 1534 1534 1534 1534 1534 1534 1533 1532 1531 1529 1528 1527 1526 1523 1520 1516 1511 1506 1502 1497 1492 1486
1529 1534 1538 1536 1537 1536 1537 1539 1541 1542 1550 1564 1559 1539 1535 1536 1537 1536 1536 1536 1536 1536 1536 1535 1534 1534 1533 1532 1530 1529 1527 1526 1524 1522 1520 1517 1513 1508 1504 1499 1495 1490 1484 1478
1528 1536 1540 1536 1539 1537 1537 1539 1545 1550 1554 1555 1545 1532 1536 1537 1537 1537 1537 1537 1536 1536 1535 1534 1533 1532 1530 1529 1527 1525 1523 1521 1519 1516 1513 1510 1507 1502 1497 1492 1487 1481 1475 1469
1527 1539 1535 1537 1534 1537 1538 1539 1543 1542 1547 1544 1540 1533 1534 1536 1537 1537 1537 1536 1536 1535 1533 1532 1531 1530 1528 1525 1523 1521 1518 1516 1514 1511 1508 1504 1500 1495 1489 1484 1479 1473 1467 1460
1529 1534 1538 1537 1538 1538 1536 1534 1539 1539 1537 1533 1530 1536 1532 1534 1536 1536 1535 1535 1534 1533 1532 1530 1528 1526 1524 1521 1518 1516 1514 1512 1509 1506 1502 1498 1493 1488 1482 1476 1470 1464 1458 1451
1531 1537 1537 1536 1539 1539 1536 1533 1535 1537 1535 1535 1536 1533 1531 1531 1532 1533 1533 1533 1532 1531 1530 1528 1525 1522 1519 1516 1513 1511 1509 1507 1504 1500 1496 1492 1486 1480 1474 1468 1462 1455 1449 1443
1531 1536 1538 1533 1542 1537 1531 1525 1529 1528 1530 1529 1530 1526 1529 1530 1531 1532 1532 1532 1530 1529 1526 1523 1520 1516 1513 1510 1508 1507 1505 1502 1499 1495 1490 1485 1480 1473 1467 1460 1453 1446 1440 1435
1532 1536 1542 1539 1539 1538 1520 1522 1523 1524 1523 1524 1525 1526 1527 1529 1530 1530 1529 1528 1527 1525 1522 1518 1515 1511 1508 1506 1504 1503 1501 1497 1493 1489 1484 1479 1473 1466 1459 1453 1446 1439 1435 1429
1530 1536 1547 1541 1544 1533 1519 1522 1524 1522 1519 1518 1521 1524 1526 1527 1528 1527 1527 1527 1524 1521 1518 1514 1510 1507 1504 1503 1501 1499 1496 1492 1488 1483 1478 1473 1467 1460 1453 1446 1439 1434 1429 1423
1533 1534 1537 1552 1549 1543 1518 1518 1518 1519 1523 1514 1518 1523 1526 1528 1527 1525 1524 1522 1519 1517 1514 1509 1506 1504 1502 1500 1498 1495 1491 1487 1482 1478 1472 1467 1461 1454 1447 1440 1434 1428 1424 1418
1539 1545 1544 1549 1546 1530 1515 1516 1517 1523 1518 1516 1518 1521 1523 1522 1521 1521 1520 1519 1517 1513 1510 1507 1504 1502 1500 1497 1493 1490 1486 1482 1477 1472 1467 1461 1455 1447 1441 1435 1429 1424 1419 1413
1529 1539 1543 1551 1547 1532 1512 1517 1518 1514 1514 1515 1517 1519 1520 1520 1521 1520 1519 1516 1513 1510 1507 1504 1501 1500 1497 1493 1489 1485 1482 1477 1472 1467 1461 1455 1449 1442 1435 1430 1424 1419 1414 1408
1527 1520 1523 1526 1519 1510 1509 1508 1509 1510 1512 1514 1515 1516 1517 1518 1519 1518 1515 1513 1510 1507 1504 1501 1499 1496 1494 1490 1486 1480 1476 1472 1467 1462 1456 1450 1443 1437 1432 1426 1420 1414 1409 1404
1516 1516 1518 1517 1508 1505 1508 1509 1510 1512 1513 1514 1515 1515 1516 1516 1515 1513 1511 1510 1506 1504 1501 1498 1495 1492 1489 1486 1482 1477 1472 1467 1463 1457 1451 1445 1438 1433 1428 1422 1417 1411 1406 1400
1511 1512 1512 1511 1504 1506 1504 1505 1508 1510 1511 1512 1513 1514 1514 1515 1514 1512 1510 1507 1504 1501 1498 1494 1491 1487 1485 1482 1479 1474 1469 1464 1459 1453 1447 1440 1435 1430 1424 1419 1414 1408 1403 1398
1502 1500 1505 1501 1496 1498 1500 1502 1504 1506 1508 1510 1512 1513 1513 1513 1511 1508 1506 1504 1500 1497 1494 1491 1488 1484 1481 1478 1474 1470 1465 1460 1455 1449 1443 1437 1432 1426 1421 1416 1409 1405 1400 1395